Location: Bakhuizen
(52.8696°N, 5.4575°E)
Time: 04:05:56
(UTC+00:00)

ISS - Pass Details

Date: 11 May 2021
Orbit: 417 x 422 km, 51.6° (Epoch: 14 June)

Event Time Altitude Azimuth Distance (km) Brightness Sun altitude
Exits shadow 23:17:37 16° 94° (E) 1,192 -1.6 -18.9°
Drops below altitude 10° 23:18:24 10° 88° (E) 1,483 -1.0 -18.9°
Sets 23:20:39 0° 80° (E) 2,376 0.2 -18.9°
